Regional Weather Roundup
Issued by NWS

Home | Current Version | Previous Version | Graphics & Text | Print | Product List | Glossary On
Versions: 1 2 3 4 5 6 7 8 9 10 11 12 13 14 15 16 17 18 19 20 21 22 23 24 25 26 27 28 29 30 31 32 33 34 35 36 37 38 39 40 41 42 43 44 45 46 47 48 49 50
000
ASUS45 KBOU 280207
RWRCO

WEATHER ROUNDUP FOR COLORADO
NATIONAL WEATHER SERVICE DENVER/BOULDER CO
700 PM MST MON FEB 27 2017

NOTE: "FAIR" INDICATES FEW OR NO CLOUDS BELOW 12000 FEET WITH NO
SIGNIFICANT WEATHER AND/OR OBSTRUCTIONS TO VISIBILITY.

COZ001>005-013-030-031-280300-
...NORTHWEST COLORADO...

CITY           SKY/WX    TMP DP  RH WIND       PRES   REMARKS
CRAIG          LGT SNOW  23  20  88 SW9       29.74R VSB 3/4 WCI  13
HAYDEN         CLOUDY    21  18  86 W10       29.69R WCI  10
MEEKER         CLOUDY    33  26  75 NW15      29.67R WCI  23
MOUNT WERNER   NOT AVBL
STEAMBOAT SPGS CLOUDY    22  20  94 SW13      29.68R VSB 1   WCI  10
WALDEN         NOT AVBL
$$

COZ006>008-011-280300-
...WEST CENTRAL VALLEYS...

CITY           SKY/WX    TMP DP  RH WIND       PRES   REMARKS
GRAND JUNCTION FAIR      47  20  34 SW15G22   29.68R
MONTROSE       CLOUDY    40  28  62 SW9       29.75R
EAGLE          CLOUDY    37  18  44 SW22G30   29.66R
RIFLE          CLOUDY    43  16  33 W12       29.64S
DELTA          MOCLDY    47  22  37 SW10      29.72R
NUCLA          NOT AVBL
$$

COZ017>023-064>068-280300-
...SOUTHWEST COLORADO...

CITY           SKY/WX    TMP DP  RH WIND       PRES   REMARKS
DURANGO        LGT SNOW  32  30  92 SW6       29.85S FOG     WCI  26
CORTEZ         CLOUDY    38  34  85 SW6       29.82F
PAGOSA SPRINGS LGT SNOW  31  30  98 S3        29.85S
TELLURIDE      CLOUDY    28  23  80 SE7       29.78F WCI  21
WOLF CREEK PAS CLOUDY    14  14 100 S30G46    29.79F WCI  -7
$$

COZ009-010-012-014-032>034-037-058>063-280300-
...CENTRAL COLORADO...

CITY           SKY/WX    TMP DP  RH WIND       PRES   REMARKS
ASPEN          CLOUDY    30  21  69 S8        29.66S WCI  22
BUENA VISTA    CLOUDY    32  16  51 SE8G23    29.69R WCI  25
COPPER MTN     SNOW      19  10  68 MISG      29.65R VSB 1/2
BERTHOUD PASS  LGT SNOW  10   1  67 W30G53    29.59S VSB 3/4 WCI -12
COTTONWOOD PAS LGT SNOW  28  21  74 CALM      29.69R
GUNNISON       FAIR      22  12  65 E12       29.74R WCI  10
KREMMLING      CLOUDY    36  25  64 SW21G30   29.63S
LEADVILLE      FLURRIES  21  13  71 S8        29.66R WCI  11
MONARCH PASS   HVY SNOW  14  10  85 SW33G49   29.78S VSB 1/4 WCI  -8
SALIDA         CLOUDY    35  20  54 W14G22    29.80R WCI  25
SUNLIGHT       NOT AVBL
WILKERSON PASS CLOUDY    19  10  68 SW16G24   29.68R WCI   5
$$

COZ069>075-280300-
...SAN LUIS VALLEY/SANGRE DE CRISTO MOUNTAINS...

CITY           SKY/WX    TMP DP  RH WIND       PRES   REMARKS
ALAMOSA        FAIR      31  22  69 E3        29.80R
LA VETA PASS   CLOUDY    23  18  80 S31G47    29.78R WCI   5
SAGUACHE       FAIR      34  14  44 W10       29.75R WCI  26
$$

COZ035-036-038>040-280300-
...NORTHERN COLORADO FRONT RANGE...

CITY           SKY/WX    TMP DP  RH WIND       PRES   REMARKS
DENVER INTL AP MOCLDY    47   7  19 SW14      29.57R
DMNS CITY PARK   N/A     48   6  17 S10G20    29.59R
AURORA         MOCLDY    45   7  20 SW14      29.59R
FRONT RANGE AP MOCLDY    46   9  21 S14       29.60R
ERIE MUNI ARPT FAIR      48   8  20 W10G21    29.58R
BOULDER MUN AP FAIR      45  14  29 W12       29.57R
CENTENNIAL     MOCLDY    43   8  23 SW13      29.60R
BROOMFIELD     MOCLDY    41  12  30 W9        29.59R
FORT COLLINS   FAIR      37  21  52 NE12G20   29.60R
LONGMONT       NOT AVBL
$$

COZ041-046-047-076>085-087-088-280300-
...PIKES PEAK/PALMER DIVIDE AND SOUTHERN FOOTHILLS...

CITY           SKY/WX    TMP DP  RH WIND       PRES   REMARKS
COLO. SPRINGS  FAIR      41   9  26 SW14      29.67R
A. F. ACADEMY  FAIR      43   7  23 SW12G21   29.66R
SCHRIEVER AFB  FAIR      40   8  26 SW12      29.67R
ELLICOTT       FAIR     N/A N/A N/A SW10      29.66R
FALCON         FAIR      39   8  27 SW16G22   29.67R
FORT CARSON    FAIR      45  11  25 SW15      29.66R
LIMON          FAIR     N/A N/A N/A SW16G24   29.62R
MONUMENT HILL  FAIR      37   9  30 SW22G31   29.66R
TRINIDAD       FAIR      43  15  32 SW10      29.76R
$$

COZ042>045-048>051-090-091-280300-
...NORTHEAST COLORADO...

CITY           SKY/WX    TMP DP  RH WIND       PRES   REMARKS
GREELEY ARPT   FAIR      39  19  44 N24G31    29.60R
AKRON          FAIR      45  11  25 W14       29.54R
BURLINGTON     FAIR      49  13  23 SW16      29.59R
WRAY           NOT AVBL
STERLING       FAIR      36  25  64 N28G33    29.55R
HOLYOKE        FAIR      41  21  45 SE8       29.51S
FORT MORGAN    FAIR      44  14  29 N25G35    29.59R
$$

COZ086-089-092>099-280300-
...SOUTHEAST COLORADO...

CITY           SKY/WX    TMP DP  RH WIND       PRES   REMARKS
PUEBLO         FAIR      50  14  23 SW17G24   29.65R
LA JUNTA       FAIR      53  12  19 W21G28    29.67R
LAMAR          FAIR      55   7  14 W23       29.63R
SPRINGFIELD      N/A     50   9  19 W10       29.71R
$$



USA.gov is the U.S. government's official web portal to all federal, state and local government web resources and services.